EDT,Max TemperatureF,Mean TemperatureF,Min TemperatureF,Max Dew PointF,MeanDew PointF,Min DewpointF,Max Humidity, Mean Humidity, Min Humidity, Max Sea Level PressureIn, Mean Sea Level PressureIn, Min Sea Level PressureIn, Max VisibilityMiles, Mean VisibilityMiles, Min VisibilityMiles, Max Wind SpeedMPH, Mean Wind SpeedMPH, Max Gust SpeedMPH,PrecipitationIn, CloudCover, Events, WindDirDegrees
2011-10-1,47,44,41,45,42,39,93,88,82,30.14,30.03,29.93,10,8,2,15,8,22,0.10,7,Rain,301
2011-10-2,60,50,40,40,37,32,92,65,37,30.15,30.09,30.03,10,10,10,15,7,22,0.01,3,,292
2011-10-3,53,46,38,50,44,37,100,86,71,30.21,30.14,30.04,10,9,2,7,2,9,0.04,6,Rain,202
2011-10-4,69,57,45,53,49,45,100,78,55,30.31,30.25,30.19,10,7,0,8,2,10,0.00,3,Fog,48
2011-10-5,74,60,45,55,49,45,100,74,47,30.34,30.29,30.24,10,4,0,8,1,12,0.00,0,Fog,90
2011-10-6,79,63,47,57,51,46,100,68,36,30.33,30.29,30.26,10,6,0,8,2,30,0.00,1,Fog,61
2011-10-7,80,64,47,57,52,46,100,68,36,30.39,30.34,30.30,10,5,0,9,2,14,0.00,1,Fog,74
2011-10-8,79,64,49,55,51,45,100,66,32,30.46,30.39,30.35,10,9,6,7,2,10,0.00,0,,91
2011-10-9,76,62,47,53,49,45,100,68,35,30.42,30.35,30.28,10,9,6,9,3,13,0.00,0,,86
2011-10-10,78,66,53,56,53,50,93,68,43,30.28,30.21,30.11,10,10,8,8,3,9,0.00,0,,80
2011-10-11,75,66,56,56,54,49,93,67,41,30.10,30.04,29.97,10,10,7,16,4,22,0.13,3,Rain,95
2011-10-12,63,60,56,58,56,55,100,89,78,29.97,29.87,29.78,10,8,2,8,3,10,0.42,8,Rain,93
2011-10-13,67,61,54,63,58,54,100,94,87,29.77,29.61,29.49,10,5,0,9,2,13,0.59,7,Fog-Rain-Thunderstorm,195
2011-10-14,66,60,54,59,48,34,100,67,34,29.78,29.62,29.53,10,9,4,23,10,36,0.10,5,Rain,245
2011-10-15,65,58,50,40,37,34,63,47,31,30.02,29.91,29.78,10,10,10,21,11,33,0.00,0,,245
2011-10-16,79,63,46,48,41,37,76,52,27,30.07,29.93,29.76,10,10,10,24,10,36,0.00,3,,212
2011-10-17,72,63,54,49,39,32,66,45,24,29.96,29.88,29.82,10,10,10,15,4,20,0.00,4,,298
2011-10-18,75,62,49,54,47,41,89,68,46,29.85,29.72,29.57,10,10,3,24,4,31,0.24,3,Rain-Thunderstorm,29
2011-10-19,58,52,46,56,49,43,100,93,86,29.57,29.42,29.27,10,4,0,18,7,25,1.68,8,Fog-Rain,91
2011-10-20,46,44,42,43,40,37,89,83,76,29.95,29.60,29.38,10,9,4,23,14,37,0.06,8,Rain,229
2011-10-21,54,48,41,39,37,37,93,74,54,30.14,30.07,29.96,10,10,10,13,5,16,0.00,6,,238
2011-10-22,62,48,33,42,37,33,100,70,40,30.19,30.14,30.10,10,8,2,9,2,14,0.00,0,,222
2011-10-23,64,49,34,43,38,33,100,70,40,30.15,30.10,30.06,10,10,6,7,2,10,T,1,Rain,175
2011-10-24,67,57,46,52,46,42,93,75,57,30.19,30.08,30.01,10,9,2,14,3,21,0.08,4,Rain-Thunderstorm,245
2011-10-25,69,53,37,48,41,36,100,69,37,30.28,30.21,30.00,10,3,0,10,3,16,0.00,2,Fog,156
2011-10-26,70,62,53,57,50,41,93,74,55,30.00,29.90,29.80,10,9,2,18,6,24,0.15,5,Rain,200
2011-10-27,59,49,39,57,50,35,100,85,70,30.13,29.86,29.74,10,6,0,15,7,22,0.69,8,Fog-Rain,290
2011-10-28,41,38,34,37,36,33,100,90,79,30.20,30.14,30.08,10,7,0,12,5,14,0.32,6,Fog-Rain,39
2011-10-29,53,44,35,38,36,32,100,75,50,30.14,30.09,30.05,10,9,6,9,3,14,0.05,6,Rain,329
2011-10-30,56,42,28,37,31,27,100,68,35,30.30,30.21,30.15,10,7,2,9,2,13,0.00,0,,175
2011-10-31,55,44,33,41,35,30,96,72,47,30.22,30.17,30.13,10,9,3,16,5,24,0.06,4,Rain,174